Location: Aurora Center
(43.5271°N, 98.5894°W)
Time: 08:35:48
(UTC-05:00)

ACS3 Solar Sail - Pass Details

Date: 20 June 2024
Orbit: 992 x 1023 km, 97.4° (Epoch: 11 July)

Event Time Altitude Azimuth Distance (km) Brightness Sun altitude
Exits shadow 22:07:26 - 132° (SE) 2,843 6.5 -7.7°
Reaches altitude 10° 22:07:40 10° 131° (SE) 2,764 6.5 -7.7°
Maximum altitude 22:13:14 36° 67° (ENE) 1,532 5.7 -8.5°
Drops below altitude 10° 22:18:48 10° 4° (N) 2,767 7.8 -9.2°
Sets 22:21:28 0° 356° (N) 3,719 8.7 -9.5°
